| time (UTC) | temp F | wind direction | speed MPH | gust MPH | rain 1hr in | rain 24hr in | rain mn in | humidity % | barometer mb |
| 20260509122248 | 70 | 105 | 1.0 | 4.0 | 0.00 | 0.00 | 0.00 | 29 | 1011.4 |
| 20260509121248 | 70 | 95 | 2.0 | 4.0 | 0.00 | 0.00 | 0.00 | 29 | 1011.3 |
| 20260509120747 | 70 | 101 | 0.0 | 3.0 | 0.00 | 0.00 | 0.00 | 29 | 1011.2 |
| 20260509120248 | 71 | 95 | 1.0 | 3.0 | 0.00 | 0.00 | 0.00 | 28 | 1011.2 |
| 20260509115748 | 71 | 114 | 2.0 | 3.0 | 0.00 | 0.00 | 0.00 | 28 | 1011.3 |
| 20260509115247 | 71 | 104 | 2.0 | 3.0 | 0.00 | 0.00 | 0.00 | 28 | 1011.2 |
| 20260509114747 | 71 | 106 | 1.0 | 3.0 | 0.00 | 0.00 | 0.00 | 28 | 1011.2 |
| 20260509114247 | 71 | 120 | 1.0 | 3.0 | 0.00 | 0.00 | 0.00 | 27 | 1011.2 |
| 20260509113747 | 72 | 94 | 1.0 | 3.0 | 0.00 | 0.00 | 0.00 | 28 | 1011.3 |
| 20260509113247 | 72 | 103 | 1.0 | 2.0 | 0.00 | 0.00 | 0.00 | 27 | 1011.3 |
| 20260509112747 | 72 | 97 | 0.0 | 4.0 | 0.00 | 0.00 | 0.00 | 27 | 1011.2 |
| 20260509112247 | 72 | 101 | 1.0 | 4.0 | 0.00 | 0.00 | 0.00 | 27 | 1011.2 |
| 20260509111746 | 71 | 104 | 1.0 | 2.0 | 0.00 | 0.00 | 0.00 | 28 | 1011.1 |
| 20260509111246 | 71 | 81 | 1.0 | 2.0 | 0.00 | 0.00 | 0.00 | 28 | 1011.1 |
| 20260509110746 | 71 | 96 | 2.0 | 3.0 | 0.00 | 0.00 | 0.00 | 28 | 1011.1 |
| 20260509110246 | 71 | 88 | 0.0 | 3.0 | 0.00 | 0.00 | 0.00 | 29 | 1011.0 |
| 20260509105745 | 71 | 104 | 0.0 | 2.0 | 0.00 | 0.00 | 0.00 | 29 | 1011.1 |
| 20260509104745 | 72 | 106 | 0.0 | 2.0 | 0.00 | 0.00 | 0.00 | 28 | 1011.2 |
| 20260509104245 | 72 | 99 | 0.0 | 3.0 | 0.00 | 0.00 | 0.00 | 28 | 1011.1 |
| 20260509103745 | 72 | 108 | 1.0 | 3.0 | 0.00 | 0.00 | 0.00 | 28 | 1011.1 |
| 20260509103245 | 71 | 110 | 1.0 | 2.0 | 0.00 | 0.00 | 0.00 | 28 | 1011.1 |
| 20260509102745 | 71 | 109 | 0.0 | 2.0 | 0.00 | 0.00 | 0.00 | 29 | 1011.0 |
| 20260509102245 | 71 | 86 | 0.0 | 1.0 | 0.00 | 0.00 | 0.00 | 29 | 1011.1 |
| 20260509101814 | 71 | 86 | 0.0 | 1.0 | 0.00 | 0.00 | 0.00 | 30 | 1011.0 |
| 20260509101315 | 71 | 86 | 0.0 | 1.0 | 0.00 | 0.00 | 0.00 | 29 | 1011.0 |
| 20260509100814 | 71 | 86 | 0.0 | 1.0 | 0.00 | 0.00 | 0.00 | 28 | 1011.0 |
| 20260509100314 | 71 | 91 | 0.0 | 1.0 | 0.00 | 0.00 | 0.00 | 30 | 1011.0 |
| 20260509095814 | 71 | 98 | 0.0 | 1.0 | 0.00 | 0.00 | 0.00 | 30 | 1011.1 |
| 20260509094813 | 70 | 98 | 0.0 | 1.0 | 0.00 | 0.00 | 0.00 | 32 | 1010.9 |
| 20260509094314 | 71 | 98 | 0.0 | 1.0 | 0.00 | 0.00 | 0.00 | 32 | 1011.0 |
| 20260509093814 | 70 | 98 | 0.0 | 1.0 | 0.00 | 0.00 | 0.00 | 32 | 1011.0 |
| 20260509093313 | 71 | 113 | 0.0 | 0.0 | 0.00 | 0.00 | 0.00 | 32 | 1011.1 |
| 20260509092813 | 71 | 113 | 0.0 | 1.0 | 0.00 | 0.00 | 0.00 | 30 | 1010.9 |
| 20260509092313 | 72 | 113 | 0.0 | 1.0 | 0.00 | 0.00 | 0.00 | 30 | 1011.0 |
| 20260509091813 | 72 | 113 | 0.0 | 1.0 | 0.00 | 0.00 | 0.00 | 31 | 1011.1 |
| 20260509091313 | 73 | 113 | 0.0 | 0.0 | 0.00 | 0.00 | 0.00 | 29 | 1011.2 |
| 20260509090313 | 72 | 113 | 0.0 | 0.0 | 0.00 | 0.00 | 0.00 | 30 | 1011.2 |
| 20260509085812 | 70 | 113 | 0.0 | 0.0 | 0.00 | 0.00 | 0.00 | 30 | 1011.1 |
| 20260509084812 | 70 | 113 | 0.0 | 0.0 | 0.00 | 0.00 | 0.00 | 33 | 1010.8 |
| 20260509084312 | 70 | 113 | 0.0 | 0.0 | 0.00 | 0.00 | 0.00 | 32 | 1010.8 |
| 20260509083812 | 71 | 113 | 0.0 | 0.0 | 0.00 | 0.00 | 0.00 | 31 | 1010.8 |
| 20260509083312 | 70 | 113 | 0.0 | 0.0 | 0.00 | 0.00 | 0.00 | 33 | 1010.7 |
| 20260509082811 | 71 | 114 | 0.0 | 0.0 | 0.00 | 0.00 | 0.00 | 34 | 1010.9 |
| 20260509082311 | 71 | 113 | 0.0 | 0.0 | 0.00 | 0.00 | 0.00 | 33 | 1010.8 |
| 20260509081811 | 71 | 114 | 0.0 | 0.0 | 0.00 | 0.00 | 0.00 | 33 | 1010.8 |
| 20260509081311 | 71 | 114 | 0.0 | 0.0 | 0.00 | 0.00 | 0.00 | 35 | 1010.8 |
| 20260509080811 | 72 | 113 | 0.0 | 1.0 | 0.00 | 0.00 | 0.00 | 34 | 1010.9 |
| 20260509080311 | 73 | 114 | 0.0 | 1.0 | 0.00 | 0.00 | 0.00 | 31 | 1010.9 |
| 20260509075311 | 73 | 117 | 0.0 | 0.0 | 0.00 | 0.00 | 0.00 | 30 | 1010.7 |
| 20260509074810 | 73 | 124 | 0.0 | 1.0 | 0.00 | 0.00 | 0.00 | 30 | 1010.5 |
| 20260509074310 | 74 | 120 | 0.0 | 1.0 | 0.00 | 0.00 | 0.00 | 30 | 1010.7 |
| 20260509073810 | 74 | 69 | 0.0 | 1.0 | 0.00 | 0.00 | 0.00 | 29 | 1010.8 |
| 20260509073310 | 74 | 76 | 0.0 | 1.0 | 0.00 | 0.00 | 0.00 | 28 | 1010.7 |
| 20260509072309 | 74 | 76 | 1.0 | 1.0 | 0.00 | 0.00 | 0.00 | 30 | 1010.9 |
| 20260509071810 | 74 | 78 | 0.0 | 1.0 | 0.00 | 0.00 | 0.00 | 30 | 1010.8 |
| 20260509071309 | 74 | 65 | 0.0 | 2.0 | 0.00 | 0.00 | 0.00 | 30 | 1010.9 |
| 20260509070809 | 75 | 65 | 0.0 | 2.0 | 0.00 | 0.00 | 0.00 | 29 | 1010.9 |
| 20260509070309 | 75 | 72 | 0.0 | 1.0 | 0.00 | 0.00 | 0.00 | 28 | 1010.8 |
| 20260509065809 | 75 | 72 | 0.0 | 2.0 | 0.00 | 0.00 | 0.00 | 28 | 1010.9 |
| 20260509065309 | 75 | 75 | 1.0 | 2.0 | 0.00 | 0.00 | 0.00 | 28 | 1010.9 |
| 20260509064308 | 76 | 85 | 0.0 | 0.0 | 0.00 | 0.00 | 0.00 | 28 | 1010.9 |
| 20260509063808 | 77 | 84 | 0.0 | 1.0 | 0.00 | 0.00 | 0.00 | 26 | 1011.0 |
| 20260509063308 | 77 | 85 | 0.0 | 1.0 | 0.00 | 0.00 | 0.00 | 25 | 1010.9 |
| 20260509062808 | 78 | 84 | 0.0 | 1.0 | 0.00 | 0.00 | 0.00 | 25 | 1011.0 |
| 20260509062308 | 77 | 84 | 0.0 | 1.0 | 0.00 | 0.00 | 0.00 | 26 | 1011.0 |
| 20260509061808 | 76 | 85 | 0.0 | 0.0 | 0.00 | 0.00 | 0.00 | 28 | 1010.9 |
| 20260509061307 | 75 | 85 | 0.0 | 1.0 | 0.00 | 0.00 | 0.00 | 28 | 1010.8 |
| 20260509060807 | 76 | 85 | 0.0 | 1.0 | 0.00 | 0.00 | 0.00 | 29 | 1011.0 |
| 20260509060307 | 75 | 85 | 0.0 | 0.0 | 0.00 | 0.00 | 0.00 | 30 | 1010.7 |
| 20260509055307 | 76 | 85 | 0.0 | 1.0 | 0.00 | 0.00 | 0.00 | 28 | 1010.7 |
| 20260509054807 | 77 | 85 | 0.0 | 1.0 | 0.00 | 0.00 | 0.00 | 28 | 1010.8 |
| 20260509053806 | 77 | 85 | 0.0 | 0.0 | 0.00 | 0.00 | 0.00 | 29 | 1010.9 |
| 20260509053306 | 77 | 84 | 0.0 | 1.0 | 0.00 | 0.00 | 0.00 | 29 | 1010.8 |
| 20260509052307 | 77 | 84 | 0.0 | 0.0 | 0.00 | 0.00 | 0.00 | 30 | 1010.8 |
| 20260509051806 | 77 | 84 | 0.0 | 2.0 | 0.00 | 0.00 | 0.00 | 27 | 1010.8 |
| 20260509051306 | 77 | 84 | 0.0 | 2.0 | 0.00 | 0.00 | 0.00 | 27 | 1010.9 |
| 20260509050805 | 76 | 115 | 0.0 | 1.0 | 0.00 | 0.00 | 0.00 | 29 | 1010.7 |
| 20260509050305 | 76 | 115 | 0.0 | 1.0 | 0.00 | 0.00 | 0.00 | 29 | 1010.6 |
| 20260509045805 | 76 | 134 | 0.0 | 1.0 | 0.00 | 0.00 | 0.00 | 29 | 1010.7 |
| 20260509045306 | 77 | 134 | 0.0 | 1.0 | 0.00 | 0.00 | 0.00 | 29 | 1010.5 |
| 20260509044805 | 77 | 134 | 0.0 | 0.0 | 0.00 | 0.00 | 0.00 | 28 | 1010.4 |
| 20260509044305 | 77 | 134 | 0.0 | 0.0 | 0.00 | 0.00 | 0.00 | 29 | 1010.4 |
| 20260509043805 | 77 | 134 | 0.0 | 0.0 | 0.00 | 0.00 | 0.00 | 28 | 1010.3 |
| 20260509043304 | 78 | 134 | 0.0 | 0.0 | 0.00 | 0.00 | 0.00 | 28 | 1010.3 |
| 20260509042805 | 78 | 134 | 0.0 | 1.0 | 0.00 | 0.00 | 0.00 | 26 | 1010.3 |
| 20260509042306 | 78 | 128 | 0.0 | 1.0 | 0.00 | 0.00 | 0.00 | 26 | 1010.3 |
| 20260509041804 | 78 | 128 | 0.0 | 1.0 | 0.00 | 0.00 | 0.00 | 27 | 1010.1 |
| 20260509041304 | 78 | 128 | 0.0 | 0.0 | 0.00 | 0.00 | 0.00 | 28 | 1010.1 |
| 20260509040804 | 78 | 128 | 0.0 | 1.0 | 0.00 | 0.00 | 0.00 | 26 | 1009.9 |
| 20260509040304 | 79 | 128 | 0.0 | 1.0 | 0.00 | 0.00 | 0.00 | 27 | 1009.8 |
| 20260509035803 | 79 | 128 | 0.0 | 0.0 | 0.00 | 0.00 | 0.00 | 27 | 1009.7 |
| 20260509034803 | 81 | 128 | 0.0 | 1.0 | 0.00 | 0.00 | 0.00 | 25 | 1009.7 |
| 20260509034303 | 81 | 128 | 0.0 | 1.0 | 0.00 | 0.00 | 0.00 | 24 | 1009.6 |
| 20260509033803 | 81 | 128 | 0.0 | 1.0 | 0.00 | 0.00 | 0.00 | 23 | 1009.6 |
| 20260509033303 | 81 | 129 | 0.0 | 0.0 | 0.00 | 0.00 | 0.00 | 24 | 1009.6 |
| 20260509032802 | 81 | 203 | 0.0 | 0.0 | 0.00 | 0.00 | 0.00 | 24 | 1009.5 |
| 20260509031302 | 82 | 284 | 0.0 | 0.0 | 0.00 | 0.00 | 0.00 | 23 | 1009.4 |
| 20260509030802 | 83 | 284 | 0.0 | 0.0 | 0.00 | 0.00 | 0.00 | 22 | 1009.4 |
| 20260509030302 | 84 | 284 | 0.0 | 1.0 | 0.00 | 0.00 | 0.00 | 21 | 1009.4 |
| 20260509025802 | 84 | 284 | 0.0 | 1.0 | 0.00 | 0.00 | 0.00 | 22 | 1009.4 |
| 20260509024802 | 85 | 283 | 0.0 | 0.0 | 0.00 | 0.00 | 0.00 | 21 | 1009.2 |
| 20260509024302 | 86 | 283 | 0.0 | 0.0 | 0.00 | 0.00 | 0.00 | 19 | 1009.2 |
| 20260509023801 | 88 | 283 | 0.0 | 0.0 | 0.00 | 0.00 | 0.00 | 20 | 1009.1 |
| 20260509023301 | 89 | 284 | 0.0 | 0.0 | 0.00 | 0.00 | 0.00 | 16 | 1009.2 |
| 20260509022801 | 90 | 283 | 0.0 | 1.0 | 0.00 | 0.00 | 0.00 | 16 | 1009.2 |
| 20260509022301 | 91 | 283 | 0.0 | 1.0 | 0.00 | 0.00 | 0.00 | 15 | 1009.3 |
| 20260509021801 | 91 | 283 | 1.0 | 2.0 | 0.00 | 0.00 | 0.00 | 15 | 1009.1 |
| 20260509021301 | 92 | 288 | 1.0 | 3.0 | 0.00 | 0.00 | 0.00 | 15 | 1009.0 |
| 20260509020300 | 93 | 266 | 0.0 | 5.0 | 0.00 | 0.00 | 0.00 | 14 | 1009.1 |
| 20260509015800 | 94 | 294 | 2.0 | 5.0 | 0.00 | 0.00 | 0.00 | 14 | 1009.2 |
| 20260509015300 | 94 | 309 | 2.0 | 5.0 | 0.00 | 0.00 | 0.00 | 14 | 1008.9 |
| 20260509014800 | 95 | 302 | 2.0 | 4.0 | 0.00 | 0.00 | 0.00 | 14 | 1009.0 |
| 20260509014300 | 95 | 259 | 1.0 | 4.0 | 0.00 | 0.00 | 0.00 | 14 | 1009.0 |
| 20260509013759 | 95 | 288 | 0.0 | 7.0 | 0.00 | 0.00 | 0.00 | 14 | 1009.0 |
| 20260509012759 | 95 | 297 | 6.0 | 6.0 | 0.00 | 0.00 | 0.00 | 14 | 1009.1 |
| 20260509012259 | 95 | 300 | 2.0 | 6.0 | 0.00 | 0.00 | 0.00 | 13 | 1009.1 |
| 20260509011759 | 95 | 266 | 3.0 | 7.0 | 0.00 | 0.00 | 0.00 | 14 | 1009.1 |
| 20260509011259 | 96 | 283 | 4.0 | 8.0 | 0.00 | 0.00 | 0.00 | 13 | 1009.2 |
| 20260509010758 | 96 | 281 | 7.0 | 8.0 | 0.00 | 0.00 | 0.00 | 13 | 1009.2 |
| 20260509005759 | 96 | 268 | 2.0 | 7.0 | 0.00 | 0.00 | 0.00 | 13 | 1009.1 |
| 20260509005259 | 96 | 294 | 4.0 | 8.0 | 0.00 | 0.00 | 0.00 | 13 | 1008.9 |
| 20260509004758 | 96 | 284 | 6.0 | 8.0 | 0.00 | 0.00 | 0.00 | 13 | 1008.7 |
| 20260509004258 | 96 | 292 | 8.0 | 8.0 | 0.00 | 0.00 | 0.00 | 13 | 1008.9 |
| 20260509003758 | 96 | 274 | 2.0 | 10.0 | 0.00 | 0.00 | 0.00 | 12 | 1009.0 |
| 20260509002758 | 97 | 11 | 4.0 | 8.0 | 0.00 | 0.00 | 0.00 | 12 | 1008.9 |
| 20260509001757 | 97 | 283 | 2.0 | 8.0 | 0.00 | 0.00 | 0.00 | 13 | 1009.0 |
| 20260509000757 | 97 | 248 | 4.0 | 10.0 | 0.00 | 0.00 | 0.00 | 13 | 1009.0 |
| 20260508235757 | 97 | 288 | 6.0 | 11.0 | 0.00 | 0.00 | 0.00 | 11 | 1009.0 |
| 20260508235257 | 97 | 12 | 7.0 | 11.0 | 0.00 | 0.00 | 0.00 | 12 | 1008.9 |
| 20260508234756 | 97 | 307 | 0.0 | 9.0 | 0.00 | 0.00 | 0.00 | 13 | 1009.0 |
| 20260508234256 | 97 | 270 | 2.0 | 9.0 | 0.00 | 0.00 | 0.00 | 12 | 1009.0 |
| 20260508233256 | 98 | 314 | 3.0 | 10.0 | 0.00 | 0.00 | 0.00 | 12 | 1009.3 |
| 20260508232756 | 98 | 286 | 7.0 | 11.0 | 0.00 | 0.00 | 0.00 | 12 | 1009.4 |
| 20260508232256 | 97 | 273 | 4.0 | 11.0 | 0.00 | 0.00 | 0.00 | 12 | 1009.2 |
| 20260508231755 | 97 | 280 | 2.0 | 10.0 | 0.00 | 0.00 | 0.00 | 12 | 1009.2 |
| 20260508231256 | 97 | 274 | 4.0 | 10.0 | 0.00 | 0.00 | 0.00 | 12 | 1009.2 |
| 20260508230755 | 97 | 285 | 0.0 | 7.0 | 0.00 | 0.00 | 0.00 | 12 | 1009.3 |
| 20260508230255 | 97 | 17 | 3.0 | 10.0 | 0.00 | 0.00 | 0.00 | 13 | 1009.5 |
| 20260508225255 | 97 | 288 | 7.0 | 8.0 | 0.00 | 0.00 | 0.00 | 12 | 1009.5 |
| 20260508224755 | 97 | 277 | 6.0 | 11.0 | 0.00 | 0.00 | 0.00 | 13 | 1009.7 |
| 20260508224254 | 96 | 293 | 4.0 | 11.0 | 0.00 | 0.00 | 0.00 | 13 | 1009.6 |
| 20260508222754 | 97 | 301 | 5.0 | 6.0 | 0.00 | 0.00 | 0.00 | 13 | 1010.0 |
| 20260508222254 | 96 | 269 | 4.0 | 11.0 | 0.00 | 0.00 | 0.00 | 13 | 1009.9 |
| 20260508221754 | 96 | 286 | 3.0 | 11.0 | 0.00 | 0.00 | 0.00 | 13 | 1010.0 |
| 20260508221253 | 96 | 301 | 7.0 | 10.0 | 0.00 | 0.00 | 0.00 | 13 | 1010.0 |
| 20260508220754 | 97 | 289 | 6.0 | 9.0 | 0.00 | 0.00 | 0.00 | 13 | 1010.2 |
| 20260508220254 | 96 | 164 | 4.0 | 9.0 | 0.00 | 0.00 | 0.00 | 14 | 1010.3 |
| 20260508215753 | 96 | 265 | 2.0 | 10.0 | 0.00 | 0.00 | 0.00 | 14 | 1010.3 |
| 20260508215253 | 95 | 271 | 1.0 | 10.0 | 0.00 | 0.00 | 0.00 | 13 | 1010.3 |
| 20260508214753 | 95 | 259 | 3.0 | 11.0 | 0.00 | 0.00 | 0.00 | 13 | 1010.5 |
| 20260508214253 | 96 | 217 | 4.0 | 11.0 | 0.00 | 0.00 | 0.00 | 13 | 1010.8 |
| 20260508213252 | 96 | 304 | 1.0 | 8.0 | 0.00 | 0.00 | 0.00 | 12 | 1011.0 |
| 20260508212752 | 96 | 338 | 3.0 | 8.0 | 0.00 | 0.00 | 0.00 | 13 | 1011.1 |
| 20260508212252 | 96 | 270 | 5.0 | 8.0 | 0.00 | 0.00 | 0.00 | 13 | 1011.3 |
| 20260508211752 | 95 | 297 | 1.0 | 7.0 | 0.00 | 0.00 | 0.00 | 13 | 1011.0 |
| 20260508211252 | 96 | 243 | 3.0 | 6.0 | 0.00 | 0.00 | 0.00 | 13 | 1011.4 |
| 20260508210752 | 95 | 333 | 4.0 | 9.0 | 0.00 | 0.00 | 0.00 | 13 | 1011.2 |
| 20260508210252 | 95 | 302 | 2.0 | 9.0 | 0.00 | 0.00 | 0.00 | 13 | 1011.4 |
| 20260508205752 | 95 | 302 | 2.0 | 9.0 | 0.00 | 0.00 | 0.00 | 13 | 1011.5 |
| 20260508204751 | 95 | 285 | 2.0 | 8.0 | 0.00 | 0.00 | 0.00 | 14 | 1011.9 |
| 20260508204251 | 95 | 264 | 2.0 | 8.0 | 0.00 | 0.00 | 0.00 | 14 | 1012.0 |
| 20260508203751 | 94 | 316 | 1.0 | 4.0 | 0.00 | 0.00 | 0.00 | 14 | 1011.7 |
| 20260508203251 | 94 | 219 | 1.0 | 6.0 | 0.00 | 0.00 | 0.00 | 14 | 1011.8 |
| 20260508202751 | 94 | 287 | 2.0 | 8.0 | 0.00 | 0.00 | 0.00 | 14 | 1011.8 |
| 20260508202251 | 94 | 221 | 3.0 | 8.0 | 0.00 | 0.00 | 0.00 | 14 | 1011.9 |
| 20260508201751 | 94 | 288 | 4.0 | 5.0 | 0.00 | 0.00 | 0.00 | 14 | 1011.9 |
| 20260508201250 | 93 | 213 | 3.0 | 7.0 | 0.00 | 0.00 | 0.00 | 14 | 1012.1 |
| 20260508200750 | 93 | 295 | 3.0 | 7.0 | 0.00 | 0.00 | 0.00 | 14 | 1012.1 |
| 20260508200250 | 93 | 224 | 0.0 | 4.0 | 0.00 | 0.00 | 0.00 | 14 | 1012.2 |
| 20260508195750 | 92 | 41 | 2.0 | 10.0 | 0.00 | 0.00 | 0.00 | 14 | 1012.2 |
| 20260508195250 | 93 | 319 | 2.0 | 10.0 | 0.00 | 0.00 | 0.00 | 14 | 1012.4 |
| 20260508194249 | 93 | 226 | 2.0 | 7.0 | 0.00 | 0.00 | 0.00 | 14 | 1012.6 |
| 20260508193749 | 92 | 243 | 3.0 | 7.0 | 0.00 | 0.00 | 0.00 | 15 | 1012.6 |
| 20260508193249 | 91 | 221 | 2.0 | 6.0 | 0.00 | 0.00 | 0.00 | 15 | 1012.6 |
| 20260508192749 | 92 | 122 | 2.0 | 7.0 | 0.00 | 0.00 | 0.00 | 15 | 1012.7 |
| 20260508192248 | 92 | 225 | 2.0 | 7.0 | 0.00 | 0.00 | 0.00 | 15 | 1012.8 |
| 20260508191749 | 92 | 224 | 4.0 | 5.0 | 0.00 | 0.00 | 0.00 | 15 | 1012.9 |
| 20260508190748 | 92 | 237 | 3.0 | 8.0 | 0.00 | 0.00 | 0.00 | 15 | 1013.0 |
| 20260508190248 | 92 | 198 | 4.0 | 8.0 | 0.00 | 0.00 | 0.00 | 15 | 1013.1 |
| 20260508185748 | 92 | 264 | 1.0 | 6.0 | 0.00 | 0.00 | 0.00 | 15 | 1013.2 |
| 20260508185248 | 91 | 233 | 2.0 | 6.0 | 0.00 | 0.00 | 0.00 | 16 | 1013.1 |
| 20260508184747 | 91 | 280 | 1.0 | 6.0 | 0.00 | 0.00 | 0.00 | 16 | 1013.1 |
| 20260508184317 | 90 | 148 | 3.0 | 7.0 | 0.00 | 0.00 | 0.00 | 16 | 1013.1 |
| 20260508183748 | 90 | 115 | 0.0 | 8.0 | 0.00 | 0.00 | 0.00 | 16 | 1013.2 |
| 20260508183247 | 90 | 239 | 5.0 | 8.0 | 0.00 | 0.00 | 0.00 | 16 | 1013.1 |
| 20260508182747 | 90 | 209 | 0.0 | 8.0 | 0.00 | 0.00 | 0.00 | 16 | 1013.2 |
| 20260508182247 | 89 | 190 | 1.0 | 6.0 | 0.00 | 0.00 | 0.00 | 17 | 1013.3 |
| 20260508181817 | 89 | 194 | 4.0 | 6.0 | 0.00 | 0.00 | 0.00 | 17 | 1013.2 |
| 20260508181317 | 89 | 169 | 3.0 | 7.0 | 0.00 | 0.00 | 0.00 | 17 | 1013.3 |
| 20260508180816 | 89 | 202 | 3.0 | 8.0 | 0.00 | 0.00 | 0.00 | 17 | 1013.3 |
| 20260508180247 | 89 | 198 | 3.0 | 8.0 | 0.00 | 0.00 | 0.00 | 17 | 1013.4 |
| 20260508175816 | 89 | 236 | 4.0 | 8.0 | 0.00 | 0.00 | 0.00 | 17 | 1013.5 |
| 20260508175246 | 88 | 235 | 2.0 | 11.0 | 0.00 | 0.00 | 0.00 | 17 | 1013.5 |
| 20260508174816 | 89 | 182 | 4.0 | 11.0 | 0.00 | 0.00 | 0.00 | 17 | 1013.6 |
| 20260508173746 | 87 | 191 | 4.0 | 6.0 | 0.00 | 0.00 | 0.00 | 18 | 1013.8 |
| 20260508173245 | 87 | 228 | 2.0 | 6.0 | 0.00 | 0.00 | 0.00 | 18 | 1013.7 |
| 20260508172746 | 87 | 156 | 1.0 | 7.0 | 0.00 | 0.00 | 0.00 | 18 | 1013.8 |
| 20260508172245 | 87 | 200 | 2.0 | 8.0 | 0.00 | 0.00 | 0.00 | 18 | 1013.8 |
| 20260508171745 | 86 | 159 | 2.0 | 8.0 | 0.00 | 0.00 | 0.00 | 18 | 1013.7 |
| 20260508170314 | 86 | 122 | 2.0 | 7.0 | 0.00 | 0.00 | 0.00 | 19 | 1013.8 |
| 20260508165814 | 85 | 125 | 3.0 | 9.0 | 0.00 | 0.00 | 0.00 | 19 | 1013.8 |
| 20260508165314 | 85 | 136 | 5.0 | 9.0 | 0.00 | 0.00 | 0.00 | 19 | 1013.9 |
| 20260508164744 | 85 | 122 | 5.0 | 8.0 | 0.00 | 0.00 | 0.00 | 20 | 1013.9 |
| 20260508164314 | 85 | 155 | 1.0 | 8.0 | 0.00 | 0.00 | 0.00 | 20 | 1013.9 |
| 20260508163814 | 84 | 91 | 1.0 | 8.0 | 0.00 | 0.00 | 0.00 | 20 | 1013.8 |
| 20260508163314 | 84 | 184 | 5.0 | 11.0 | 0.00 | 0.00 | 0.00 | 21 | 1013.8 |
| 20260508162814 | 84 | 206 | 5.0 | 11.0 | 0.00 | 0.00 | 0.00 | 20 | 1013.8 |
| 20260508162313 | 84 | 111 | 4.0 | 10.0 | 0.00 | 0.00 | 0.00 | 21 | 1013.8 |
| 20260508161313 | 83 | 138 | 3.0 | 9.0 | 0.00 | 0.00 | 0.00 | 21 | 1013.9 |
| 20260508160813 | 83 | 141 | 7.0 | 9.0 | 0.00 | 0.00 | 0.00 | 21 | 1013.8 |
| 20260508160313 | 83 | 124 | 7.0 | 9.0 | 0.00 | 0.00 | 0.00 | 21 | 1013.8 |
| 20260508155312 | 83 | 88 | 4.0 | 8.0 | 0.00 | 0.00 | 0.00 | 22 | 1014.0 |
| 20260508154312 | 81 | 99 | 3.0 | 8.0 | 0.00 | 0.00 | 0.00 | 22 | 1014.1 |
| 20260508153813 | 81 | 124 | 4.0 | 8.0 | 0.00 | 0.00 | 0.00 | 22 | 1014.2 |
| 20260508153312 | 81 | 115 | 5.0 | 8.0 | 0.00 | 0.00 | 0.00 | 23 | 1014.1 |
| 20260508152812 | 81 | 101 | 3.0 | 8.0 | 0.00 | 0.00 | 0.00 | 23 | 1014.1 |
| 20260508151812 | 81 | 172 | 2.0 | 7.0 | 0.00 | 0.00 | 0.00 | 23 | 1014.1 |
| 20260508151311 | 80 | 169 | 3.0 | 7.0 | 0.00 | 0.00 | 0.00 | 23 | 1014.1 |
| 20260508145811 | 79 | 127 | 3.0 | 7.0 | 0.00 | 0.00 | 0.00 | 24 | 1014.1 |
| 20260508145311 | 79 | 148 | 1.0 | 7.0 | 0.00 | 0.00 | 0.00 | 24 | 1014.4 |
| 20260508144811 | 79 | 136 | 2.0 | 7.0 | 0.00 | 0.00 | 0.00 | 24 | 1014.3 |
| 20260508143810 | 78 | 105 | 2.0 | 8.0 | 0.00 | 0.00 | 0.00 | 25 | 1014.4 |
| 20260508143310 | 78 | 122 | 3.0 | 8.0 | 0.00 | 0.00 | 0.00 | 25 | 1014.5 |
| 20260508142810 | 78 | 149 | 3.0 | 8.0 | 0.00 | 0.00 | 0.00 | 25 | 1014.3 |
| 20260508142310 | 78 | 144 | 3.0 | 6.0 | 0.00 | 0.00 | 0.00 | 25 | 1014.4 |
| 20260508141810 | 78 | 115 | 4.0 | 7.0 | 0.00 | 0.00 | 0.00 | 26 | 1014.5 |
| 20260508140809 | 77 | 101 | 2.0 | 4.0 | 0.00 | 0.00 | 0.00 | 27 | 1014.2 |
| 20260508135809 | 75 | 105 | 3.0 | 6.0 | 0.00 | 0.00 | 0.00 | 28 | 1014.0 |
| 20260508135309 | 75 | 84 | 2.0 | 6.0 | 0.00 | 0.00 | 0.00 | 28 | 1014.3 |
| 20260508134809 | 74 | 110 | 2.0 | 6.0 | 0.00 | 0.00 | 0.00 | 29 | 1014.2 |
| 20260508134309 | 73 | 89 | 3.0 | 6.0 | 0.00 | 0.00 | 0.00 | 29 | 1014.0 |
| 20260508132808 | 71 | 110 | 2.0 | 6.0 | 0.00 | 0.00 | 0.00 | 31 | 1013.6 |
| 20260508132309 | 70 | 110 | 2.0 | 6.0 | 0.00 | 0.00 | 0.00 | 32 | 1013.5 |
| 20260508131808 | 69 | 108 | 3.0 | 7.0 | 0.00 | 0.00 | 0.00 | 33 | 1013.3 |
| 20260508130808 | 69 | 122 | 4.0 | 6.0 | 0.00 | 0.00 | 0.00 | 33 | 1013.2 |
| 20260508130308 | 68 | 98 | 2.0 | 6.0 | 0.00 | 0.00 | 0.00 | 34 | 1013.3 |
| 20260508125307 | 68 | 82 | 4.0 | 5.0 | 0.00 | 0.00 | 0.00 | 33 | 1013.4 |
| 20260508124808 | 68 | 110 | 3.0 | 3.0 | 0.00 | 0.00 | 0.00 | 34 | 1013.3 |
| 20260508124307 | 68 | 114 | 1.0 | 3.0 | 0.00 | 0.00 | 0.00 | 34 | 1013.4 |